Check out our new BloomSky Weather System.

Active alerts


No alerts


Thunder radar  blitzortung!


Rain radar more information rain snow radar


Visit our other weather sites:

Template documentation
and downloads

And another site



Weather Underground History page Text

Daily Summary for July 3, 2017 Units:  Metric    English   Both
« Previous Day
Next Day »
Daily Weekly Monthly Yearly Custom
  High: Low: Average:
Temperature: 36.1 °C 25.6 °C 30.1 °C
Dew Point: 26.2 °C 22.9 °C 25 °C
Humidity: 93 % 47 % 76 %
Wind Speed: 14.5 km/h 0 km/h 6.1 km/h
Wind Gust: 22.5 km/h - -
Wind:- - SSE
Pressure: 1018.2 hPa 1013.4 hPa -
Precipitation: 0 mm    
Historical Graphs
 
 
Tabular Data for July 3, 2017
Time Temperature Dew Point Pressure Wind Wind Speed Wind Gust Humidity Rainfall Rate (Hourly)
00:00 27.6 °C 25.2 °C 1016.8 hPa SSE 14.5 km/h 19.3 km/h 87 % 0 mm
00:05 27.6 °C 25.2 °C 1017.2 hPa South 8 km/h 19.3 km/h 87 % 0 mm
00:10 27.5 °C 25.1 °C 1017.2 hPa SE 8 km/h 19.3 km/h 87 % 0 mm
00:15 27.5 °C 25.3 °C 1016.8 hPa SSE 1.6 km/h 14.5 km/h 88 % 0 mm
00:20 27.4 °C 25.2 °C 1017.2 hPa South 6.4 km/h 14.5 km/h 88 % 0 mm
00:25 27.4 °C 25.2 °C 1017.2 hPa SSE 3.2 km/h 12.9 km/h 88 % 0 mm
00:30 27.3 °C 25.1 °C 1017.2 hPa South 3.2 km/h 12.9 km/h 88 % 0 mm
00:35 27.3 °C 25.1 °C 1017.2 hPa SE 3.2 km/h 12.9 km/h 88 % 0 mm
00:40 27.3 °C 25.1 °C 1017.2 hPa South 6.4 km/h 12.9 km/h 88 % 0 mm
00:45 27.2 °C 25.2 °C 1017.2 hPa SE 3.2 km/h 12.9 km/h 89 % 0 mm
00:50 27.2 °C 25.2 °C 1017.2 hPa SE 6.4 km/h 11.3 km/h 89 % 0 mm
00:55 27.2 °C 25.2 °C 1017.2 hPa SW 3.2 km/h 8 km/h 89 % 0 mm
01:00 27.1 °C 25.1 °C 1017.2 hPa South 3.2 km/h 12.9 km/h 89 % 0 mm
01:05 27.1 °C 25.1 °C 1017.2 hPa South 4.8 km/h 12.9 km/h 89 % 0 mm
01:10 27.1 °C 25.1 °C 1017.2 hPa ESE 6.4 km/h 12.9 km/h 89 % 0 mm
01:15 27.1 °C 25.3 °C 1017.2 hPa SSE 6.4 km/h 11.3 km/h 90 % 0 mm
01:20 27.1 °C 25.3 °C 1016.8 hPa SE 3.2 km/h 11.3 km/h 90 % 0 mm
01:25 27.1 °C 25.3 °C 1016.8 hPa SSW 3.2 km/h 9.7 km/h 90 % 0 mm
01:30 27.1 °C 25.3 °C 1016.8 hPa South 8 km/h 9.7 km/h 90 % 0 mm
01:35 27.1 °C 25.3 °C 1016.8 hPa SE 3.2 km/h 9.7 km/h 90 % 0 mm
01:40 27.1 °C 25.3 °C 1016.8 hPa South 4.8 km/h 9.7 km/h 90 % 0 mm
01:45 27.1 °C 25.3 °C 1016.8 hPa SSE 8 km/h 12.9 km/h 90 % 0 mm
01:50 27.1 °C 25.3 °C 1016.8 hPa SE 6.4 km/h 14.5 km/h 90 % 0 mm
01:55 27.1 °C 25.3 °C 1016.8 hPa South 9.7 km/h 14.5 km/h 90 % 0 mm
02:00 27.1 °C 25.3 °C 1016.8 hPa South 4.8 km/h 14.5 km/h 90 % 0 mm
02:05 27.1 °C 25.3 °C 1016.5 hPa SE 11.3 km/h 12.9 km/h 90 % 0 mm
02:10 27.1 °C 25.3 °C 1016.8 hPa South 3.2 km/h 16.1 km/h 90 % 0 mm
02:16 27.1 °C 25.3 °C 1016.5 hPa SSE 6.4 km/h 16.1 km/h 90 % 0 mm
02:21 27.1 °C 25.3 °C 1016.8 hPa SSW 4.8 km/h 16.1 km/h 90 % 0 mm
02:26 27 °C 25.2 °C 1016.5 hPa SW 9.7 km/h 14.5 km/h 90 % 0 mm
02:31 27 °C 25.2 °C 1016.8 hPa SSW 4.8 km/h 19.3 km/h 90 % 0 mm
02:36 27 °C 25.2 °C 1016.8 hPa SE 11.3 km/h 19.3 km/h 90 % 0 mm
02:41 26.9 °C 25.1 °C 1016.5 hPa SSE 6.4 km/h 19.3 km/h 90 % 0 mm
02:46 26.9 °C 25.1 °C 1016.5 hPa South 3.2 km/h 12.9 km/h 90 % 0 mm
02:51 26.9 °C 25.1 °C 1016.5 hPa SE 6.4 km/h 12.9 km/h 90 % 0 mm
02:56 26.9 °C 25.1 °C 1016.5 hPa SSW 8 km/h 12.9 km/h 90 % 0 mm
03:01 26.9 °C 25.1 °C 1016.5 hPa SSE 3.2 km/h 12.9 km/h 90 % 0 mm
03:06 26.8 °C 25 °C 1016.5 hPa SE 3.2 km/h 12.9 km/h 90 % 0 mm
03:11 26.8 °C 25 °C 1016.8 hPa SE 6.4 km/h 12.9 km/h 90 % 0 mm
03:21 26.8 °C 25 °C 1016.5 hPa South 4.8 km/h 14.5 km/h 90 % 0 mm
03:26 26.7 °C 24.9 °C 1016.5 hPa South 4.8 km/h 14.5 km/h 90 % 0 mm
03:31 26.7 °C 25.1 °C 1016.5 hPa South 3.2 km/h 11.3 km/h 91 % 0 mm
03:36 26.6 °C 25 °C 1016.5 hPa SE 4.8 km/h 11.3 km/h 91 % 0 mm
03:41 26.6 °C 25 °C 1016.5 hPa SSW 3.2 km/h 11.3 km/h 91 % 0 mm
03:46 26.6 °C 25 °C 1016.5 hPa SSW 6.4 km/h 11.3 km/h 91 % 0 mm
03:51 26.5 °C 24.9 °C 1016.5 hPa South 6.4 km/h 8 km/h 91 % 0 mm
03:56 26.5 °C 24.9 °C 1016.5 hPa SSE 3.2 km/h 8 km/h 91 % 0 mm
04:01 26.4 °C 24.8 °C 1016.5 hPa SSW 4.8 km/h 8 km/h 91 % 0 mm
04:06 26.4 °C 24.8 °C 1016.5 hPa South 6.4 km/h 8 km/h 91 % 0 mm
04:11 26.4 °C 24.8 °C 1016.8 hPa SSE 3.2 km/h 8 km/h 91 % 0 mm
04:16 26.3 °C 24.7 °C 1016.5 hPa SE 3.2 km/h 6.4 km/h 91 % 0 mm
04:21 26.3 °C 24.9 °C 1016.5 hPa SSW 3.2 km/h 9.7 km/h 92 % 0 mm
04:26 26.3 °C 24.9 °C 1016.5 hPa SSE 6.4 km/h 9.7 km/h 92 % 0 mm
04:31 26.3 °C 24.9 °C 1016.1 hPa SSW 4.8 km/h 9.7 km/h 92 % 0 mm
04:36 26.2 °C 24.8 °C 1016.1 hPa South 3.2 km/h 9.7 km/h 92 % 0 mm
04:46 26.2 °C 24.8 °C 1016.1 hPa South 6.4 km/h 9.7 km/h 92 % 0 mm
04:51 26.2 °C 24.8 °C 1016.1 hPa SSE 4.8 km/h 8 km/h 92 % 0 mm
04:56 26.2 °C 24.8 °C 1016.1 hPa South 3.2 km/h 8 km/h 92 % 0 mm
05:01 26.2 °C 24.8 °C 1016.1 hPa South 8 km/h 8 km/h 92 % 0 mm
05:06 26.2 °C 24.8 °C 1016.1 hPa SSE 4.8 km/h 9.7 km/h 92 % 0 mm
05:11 26.1 °C 24.7 °C 1016.1 hPa SSW 6.4 km/h 9.7 km/h 92 % 0 mm
05:16 26.1 °C 24.7 °C 1016.1 hPa South 4.8 km/h 9.7 km/h 92 % 0 mm
05:21 26.1 °C 24.7 °C 1016.1 hPa SSE 3.2 km/h 9.7 km/h 92 % 0 mm
05:26 26.1 °C 24.7 °C 1016.1 hPa SE 6.4 km/h 9.7 km/h 92 % 0 mm
05:31 26.1 °C 24.7 °C 1016.1 hPa South 6.4 km/h 9.7 km/h 92 % 0 mm
05:36 26.1 °C 24.7 °C 1016.1 hPa Calm   9.7 km/h 92 % 0 mm
05:41 26 °C 24.6 °C 1016.1 hPa SSE 3.2 km/h 8 km/h 92 % 0 mm
05:46 25.9 °C 24.5 °C 1016.1 hPa South 1.6 km/h 6.4 km/h 92 % 0 mm
05:51 25.9 °C 24.5 °C 1016.1 hPa South 3.2 km/h 6.4 km/h 92 % 0 mm
05:56 25.8 °C 24.4 °C 1016.1 hPa Calm   6.4 km/h 92 % 0 mm
06:01 25.8 °C 24.6 °C 1016.1 hPa SSE 3.2 km/h 4.8 km/h 93 % 0 mm
06:06 25.8 °C 24.6 °C 1016.1 hPa South 4.8 km/h 4.8 km/h 93 % 0 mm
06:11 25.8 °C 24.6 °C 1016.5 hPa SSE 1.6 km/h 6.4 km/h 93 % 0 mm
06:16 25.8 °C 24.6 °C 1016.5 hPa SSE 1.6 km/h 6.4 km/h 93 % 0 mm
06:21 25.8 °C 24.6 °C 1016.5 hPa SSE 1.6 km/h 6.4 km/h 93 % 0 mm
06:26 25.8 °C 24.6 °C 1016.5 hPa SSE 3.2 km/h 4.8 km/h 93 % 0 mm
06:31 25.7 °C 24.5 °C 1016.8 hPa South 1.6 km/h 4.8 km/h 93 % 0 mm
06:36 25.7 °C 24.5 °C 1016.8 hPa Calm   4.8 km/h 93 % 0 mm
06:41 25.7 °C 24.5 °C 1016.8 hPa Calm   4.8 km/h 93 % 0 mm
06:47 25.6 °C 24.4 °C 1016.8 hPa SSE 1.6 km/h 3.2 km/h 93 % 0 mm
06:52 25.6 °C 24.4 °C 1017.2 hPa Calm   3.2 km/h 93 % 0 mm
06:57 25.7 °C 24.5 °C 1017.2 hPa SSE 3.2 km/h 3.2 km/h 93 % 0 mm
07:02 25.8 °C 24.6 °C 1017.2 hPa Calm   4.8 km/h 93 % 0 mm
07:07 25.9 °C 24.7 °C 1017.2 hPa Calm   4.8 km/h 93 % 0 mm
07:12 26.1 °C 24.9 °C 1017.2 hPa Calm   4.8 km/h 93 % 0 mm
07:17 26.3 °C 24.9 °C 1017.5 hPa SSE 1.6 km/h 6.4 km/h 92 % 0 mm
07:22 26.6 °C 25.2 °C 1017.5 hPa South 1.6 km/h 6.4 km/h 92 % 0 mm
07:27 26.7 °C 25.1 °C 1017.5 hPa South 3.2 km/h 6.4 km/h 91 % 0 mm
07:32 26.9 °C 25.3 °C 1017.5 hPa SE 1.6 km/h 6.4 km/h 91 % 0 mm
07:37 27 °C 25.2 °C 1017.8 hPa SSW 4.8 km/h 6.4 km/h 90 % 0 mm
07:42 27.1 °C 25.3 °C 1017.8 hPa Calm   6.4 km/h 90 % 0 mm
07:47 27.5 °C 25.7 °C 1017.8 hPa SE 3.2 km/h 4.8 km/h 90 % 0 mm
07:52 27.8 °C 25.6 °C 1017.8 hPa Calm   4.8 km/h 88 % 0 mm
07:57 28 °C 25.6 °C 1017.8 hPa SSW 1.6 km/h 4.8 km/h 87 % 0 mm
08:02 28.3 °C 25.9 °C 1017.8 hPa Calm   6.4 km/h 87 % 0 mm
08:07 28.7 °C 25.9 °C 1017.8 hPa Calm   6.4 km/h 85 % 0 mm
08:12 29 °C 26 °C 1017.8 hPa South 1.6 km/h 6.4 km/h 84 % 0 mm
08:17 29.1 °C 25.9 °C 1017.8 hPa SSW 3.2 km/h 9.7 km/h 83 % 0 mm
08:22 29 °C 25.8 °C 1017.8 hPa South 4.8 km/h 9.7 km/h 83 % 0 mm
08:27 29.1 °C 25.7 °C 1017.8 hPa SW 3.2 km/h 9.7 km/h 82 % 0 mm
08:32 29.1 °C 25.5 °C 1017.8 hPa SSW 9.7 km/h 9.7 km/h 81 % 0 mm
08:37 28.8 °C 25.4 °C 1018.2 hPa SSE 4.8 km/h 12.9 km/h 82 % 0 mm
08:42 28.7 °C 25.5 °C 1018.2 hPa South 8 km/h 12.9 km/h 83 % 0 mm
08:47 28.7 °C 25.5 °C 1018.2 hPa SSW 3.2 km/h 12.9 km/h 83 % 0 mm
08:52 28.8 °C 25.8 °C 1018.2 hPa ESE 11.3 km/h 11.3 km/h 84 % 0 mm
08:57 28.9 °C 25.7 °C 1018.2 hPa SW 3.2 km/h 11.3 km/h 83 % 0 mm
09:02 29.1 °C 25.7 °C 1018.2 hPa SSW 4.8 km/h 11.3 km/h 82 % 0 mm
09:07 29.4 °C 26 °C 1018.2 hPa SSW 4.8 km/h 11.3 km/h 82 % 0 mm
09:12 29.7 °C 25.9 °C 1018.2 hPa SSE 1.6 km/h 11.3 km/h 80 % 0 mm
09:17 29.9 °C 25.6 °C 1018.2 hPa SW 4.8 km/h 11.3 km/h 78 % 0 mm
09:22 29.9 °C 25.6 °C 1018.2 hPa SSW 4.8 km/h 11.3 km/h 78 % 0 mm
09:27 29.8 °C 25.3 °C 1018.2 hPa SSW 8 km/h 14.5 km/h 77 % 0 mm
09:32 29.7 °C 25.4 °C 1018.2 hPa South 6.4 km/h 16.1 km/h 78 % 0 mm
09:37 29.9 °C 25.4 °C 1018.2 hPa SSE 3.2 km/h 16.1 km/h 77 % 0 mm
09:42 30.1 °C 25.4 °C 1018.2 hPa SE 6.4 km/h 17.7 km/h 76 % 0 mm
09:47 29.9 °C 25 °C 1018.2 hPa SSE 3.2 km/h 19.3 km/h 75 % 0 mm
09:52 30 °C 25.5 °C 1018.2 hPa WSW 4.8 km/h 19.3 km/h 77 % 0 mm
09:57 30.2 °C 25.5 °C 1018.2 hPa SSW 4.8 km/h 19.3 km/h 76 % 0 mm
10:02 30.3 °C 25.4 °C 1018.2 hPa SSE 4.8 km/h 16.1 km/h 75 % 0 mm
10:07 30.7 °C 25.8 °C 1018.2 hPa South 4.8 km/h 16.1 km/h 75 % 0 mm
10:12 30.9 °C 25.3 °C 1018.2 hPa SSW 6.4 km/h 16.1 km/h 72 % 0 mm
10:17 30.9 °C 25 °C 1018.2 hPa SSW 14.5 km/h 16.1 km/h 71 % 0 mm
10:22 31.2 °C 25.1 °C 1018.2 hPa South 4.8 km/h 16.1 km/h 70 % 0 mm
10:27 31.3 °C 24.9 °C 1018.2 hPa SSE 9.7 km/h 16.1 km/h 69 % 0 mm
10:32 31.3 °C 24.7 °C 1017.8 hPa SE 11.3 km/h 16.1 km/h 68 % 0 mm
10:37 31.5 °C 25.1 °C 1017.8 hPa SSE 8 km/h 17.7 km/h 69 % 0 mm
10:42 31.7 °C 25.1 °C 1017.8 hPa South 14.5 km/h 20.9 km/h 68 % 0 mm
10:43 31.7 °C 25.1 °C 1017.8 hPa SE 11.3 km/h 20.9 km/h 68 % 0 mm
10:48 31.9 °C 25 °C 1017.8 hPa South 8 km/h 20.9 km/h 67 % 0 mm
10:53 32.1 °C 26.2 °C 1017.8 hPa SSW 1.6 km/h 20.9 km/h 71 % 0 mm
10:55 36.1 °C 23 °C 1014.4 hPa SE 8 km/h 11.3 km/h 47 % 0 mm
10:56 36.1 °C 23 °C 1014.4 hPa SE 12.9 km/h 12.9 km/h 47 % 0 mm
10:57 36.1 °C 23.3 °C 1014.4 hPa East 3.2 km/h 11.3 km/h 48 % 0 mm
10:58 32.1 °C 24.7 °C 1017.8 hPa SSE 8 km/h 17.7 km/h 65 % 0 mm
11:03 32 °C 24.8 °C 1017.8 hPa SSW 9.7 km/h 17.7 km/h 66 % 0 mm
11:08 31.9 °C 25 °C 1017.8 hPa SSW 6.4 km/h 17.7 km/h 67 % 0 mm
11:13 32.2 °C 24.8 °C 1017.8 hPa South 4.8 km/h 17.7 km/h 65 % 0 mm
11:18 32.3 °C 24.4 °C 1017.8 hPa SSW 9.7 km/h 16.1 km/h 63 % 0 mm
11:23 32.3 °C 25.1 °C 1017.8 hPa South 3.2 km/h 14.5 km/h 66 % 0 mm
11:28 32.4 °C 25 °C 1017.5 hPa South 6.4 km/h 14.5 km/h 65 % 0 mm
11:33 32.4 °C 25 °C 1017.8 hPa SSE 8 km/h 14.5 km/h 65 % 0 mm
11:38 32.7 °C 25.8 °C 1017.5 hPa SE 6.4 km/h 16.1 km/h 67 % 0 mm
11:43 33.2 °C 25.5 °C 1017.5 hPa SW 4.8 km/h 16.1 km/h 64 % 0 mm
11:48 32.9 °C 24.6 °C 1017.5 hPa SSW 3.2 km/h 16.1 km/h 62 % 0 mm
11:53 32.6 °C 25.2 °C 1017.5 hPa South 1.6 km/h 11.3 km/h 65 % 0 mm
11:58 32.4 °C 25.5 °C 1017.5 hPa Calm   11.3 km/h 67 % 0 mm
12:03 33 °C 26 °C 1017.5 hPa SE 1.6 km/h 11.3 km/h 67 % 0 mm
12:08 33.4 °C 25.4 °C 1017.5 hPa South 6.4 km/h 9.7 km/h 63 % 0 mm
12:13 33.6 °C 25.3 °C 1017.5 hPa SW 4.8 km/h 9.7 km/h 62 % 0 mm
12:14 33.7 °C 25.4 °C 1017.5 hPa WSW 1.6 km/h 9.7 km/h 62 % 0 mm
12:19 34.2 °C 25.3 °C 1017.5 hPa Calm   9.7 km/h 60 % 0 mm
12:24 34.4 °C 24.9 °C 1017.5 hPa NW 3.2 km/h 9.7 km/h 58 % 0 mm
12:29 34.3 °C 24.8 °C 1017.5 hPa Calm   12.9 km/h 58 % 0 mm
12:34 34.2 °C 24.2 °C 1017.2 hPa SE 1.6 km/h 12.9 km/h 56 % 0 mm
12:39 33.9 °C 24.5 °C 1017.2 hPa SSE 1.6 km/h 12.9 km/h 58 % 0 mm
12:44 33.9 °C 24.2 °C 1017.2 hPa SSW 3.2 km/h 9.7 km/h 57 % 0 mm
12:49 33.4 °C 24.6 °C 1017.2 hPa Calm   9.7 km/h 60 % 0 mm
12:54 33.1 °C 23.7 °C 1016.8 hPa SSW 3.2 km/h 11.3 km/h 58 % 0 mm
12:59 33.6 °C 25.3 °C 1016.8 hPa SSW 9.7 km/h 11.3 km/h 62 % 0 mm
13:04 33.4 °C 24 °C 1016.8 hPa SE 3.2 km/h 11.3 km/h 58 % 0 mm
13:09 33.3 °C 24.8 °C 1016.8 hPa Calm   11.3 km/h 61 % 0 mm
13:14 33.8 °C 24.4 °C 1016.8 hPa South 8 km/h 11.3 km/h 58 % 0 mm
13:19 33.9 °C 24.2 °C 1016.5 hPa SSE 4.8 km/h 9.7 km/h 57 % 0 mm
13:24 34.2 °C 23.9 °C 1016.5 hPa South 4.8 km/h 12.9 km/h 55 % 0 mm
13:29 34.5 °C 25.3 °C 1016.5 hPa South 9.7 km/h 12.9 km/h 59 % 0 mm
13:34 34.9 °C 24.5 °C 1016.5 hPa SE 8 km/h 12.9 km/h 55 % 0 mm
13:39 34.9 °C 23.9 °C 1016.1 hPa ESE 8 km/h 12.9 km/h 53 % 0 mm
13:44 34.6 °C 23.9 °C 1016.1 hPa SSE 3.2 km/h 11.3 km/h 54 % 0 mm
13:49 34.3 °C 23.3 °C 1016.1 hPa SSW 4.8 km/h 16.1 km/h 53 % 0 mm
13:54 34.1 °C 24.9 °C 1016.1 hPa SE 1.6 km/h 16.1 km/h 59 % 0 mm
13:59 34.3 °C 24.8 °C 1016.1 hPa SW 3.2 km/h 16.1 km/h 58 % 0 mm
14:04 34.7 °C 25.5 °C 1016.1 hPa West 1.6 km/h 16.1 km/h 59 % 0 mm
14:09 34.9 °C 23.6 °C 1016.1 hPa SSE 8 km/h 16.1 km/h 52 % 0 mm
14:14 34.9 °C 24.5 °C 1016.1 hPa SSW 1.6 km/h 12.9 km/h 55 % 0 mm
14:19 35.4 °C 24.4 °C 1016.1 hPa SSE 1.6 km/h 12.9 km/h 53 % 0 mm
14:24 35.7 °C 23.7 °C 1015.8 hPa WNW 3.2 km/h 12.9 km/h 50 % 0 mm
16:00 35.9 °C 23.2 °C 1014.4 hPa SE 9.7 km/h -1607.7 km/h 48 % 0 mm
16:05 35.8 °C 23.4 °C 1014.4 hPa SSE 8 km/h 16.1 km/h 49 % 0 mm
16:10 35.8 °C 23.4 °C 1014.4 hPa SSW 6.4 km/h 16.1 km/h 49 % 0 mm
16:15 35.8 °C 23.1 °C 1014.4 hPa SSW 8 km/h 16.1 km/h 48 % 0 mm
16:20 35.6 °C 23.9 °C 1014.4 hPa SW 9.7 km/h 16.1 km/h 51 % 0 mm
16:25 35.6 °C 23.6 °C 1014.4 hPa South 14.5 km/h 16.1 km/h 50 % 0 mm
16:30 35.2 °C 22.9 °C 1014.4 hPa SSW 4.8 km/h 17.7 km/h 49 % 0 mm
16:35 35.1 °C 23.4 °C 1014.1 hPa South 6.4 km/h 17.7 km/h 51 % 0 mm
16:40 35.1 °C 23.4 °C 1014.1 hPa SSW 11.3 km/h 17.7 km/h 51 % 0 mm
16:45 35 °C 23 °C 1014.1 hPa ESE 11.3 km/h 17.7 km/h 50 % 0 mm
16:50 35.1 °C 23.1 °C 1014.1 hPa SSE 6.4 km/h 17.7 km/h 50 % 0 mm
16:55 35 °C 23.3 °C 1014.1 hPa SSE 4.8 km/h 17.7 km/h 51 % 0 mm
17:00 35 °C 23.7 °C 1014.1 hPa South 9.7 km/h 12.9 km/h 52 % 0 mm
17:05 35.1 °C 23.1 °C 1013.8 hPa ESE 11.3 km/h 14.5 km/h 50 % 0 mm
17:10 35.1 °C 23.8 °C 1014.1 hPa SSE 9.7 km/h 14.5 km/h 52 % 0 mm
17:15 35.2 °C 23.9 °C 1013.8 hPa ESE 14.5 km/h 17.7 km/h 52 % 0 mm
17:20 34.9 °C 23.9 °C 1013.8 hPa South 8 km/h 17.7 km/h 53 % 0 mm
17:25 34.5 °C 23.5 °C 1013.8 hPa South 6.4 km/h 17.7 km/h 53 % 0 mm
17:30 34.2 °C 23.9 °C 1013.8 hPa SE 8 km/h 16.1 km/h 55 % 0 mm
17:35 34.3 °C 24.3 °C 1013.8 hPa SSW 3.2 km/h 14.5 km/h 56 % 0 mm
17:40 34.3 °C 25.4 °C 1013.8 hPa SSE 8 km/h 16.1 km/h 60 % 0 mm
17:45 34.1 °C 26 °C 1013.8 hPa East 4.8 km/h 16.1 km/h 63 % 0 mm
17:51 33.9 °C 25.9 °C 1013.8 hPa East 8 km/h 16.1 km/h 63 % 0 mm
17:56 33.6 °C 25.8 °C 1013.8 hPa East 6.4 km/h 19.3 km/h 64 % 0 mm
18:01 33.5 °C 26 °C 1013.4 hPa SSE 11.3 km/h 19.3 km/h 65 % 0 mm
18:06 33.4 °C 25.7 °C 1013.4 hPa SSE 8 km/h 19.3 km/h 64 % 0 mm
18:11 33.3 °C 25.6 °C 1013.8 hPa SE 12.9 km/h 19.3 km/h 64 % 0 mm
18:16 33.2 °C 26 °C 1013.8 hPa SSE 3.2 km/h 19.3 km/h 66 % 0 mm
18:21 33.1 °C 25.9 °C 1013.8 hPa SSE 9.7 km/h 19.3 km/h 66 % 0 mm
18:26 33.1 °C 25.6 °C 1013.8 hPa ESE 3.2 km/h 19.3 km/h 65 % 0 mm
18:31 33.1 °C 25.6 °C 1013.4 hPa ESE 4.8 km/h 17.7 km/h 65 % 0 mm
18:36 33.1 °C 25.4 °C 1013.4 hPa SE 9.7 km/h 17.7 km/h 64 % 0 mm
18:41 33.1 °C 25.1 °C 1013.4 hPa South 9.7 km/h 17.7 km/h 63 % 0 mm
18:46 33.1 °C 25.1 °C 1013.4 hPa ESE 6.4 km/h 19.3 km/h 63 % 0 mm
18:51 33 °C 25.3 °C 1013.4 hPa SE 8 km/h 19.3 km/h 64 % 0 mm
18:56 32.9 °C 25.2 °C 1013.4 hPa SSE 8 km/h 19.3 km/h 64 % 0 mm
19:01 32.8 °C 25.3 °C 1013.4 hPa SE 11.3 km/h 22.5 km/h 65 % 0 mm
19:06 32.7 °C 25.3 °C 1013.4 hPa SE 12.9 km/h 22.5 km/h 65 % 0 mm
19:08 32.7 °C 25.3 °C 1013.4 hPa ESE 11.3 km/h 22.5 km/h 65 % 0 mm
19:13 32.6 °C 25.4 °C 1013.4 hPa SSE 11.3 km/h 22.5 km/h 66 % 0 mm
19:18 32.5 °C 25.3 °C 1013.4 hPa East 4.8 km/h 19.3 km/h 66 % 0 mm
19:23 32.3 °C 25.4 °C 1013.4 hPa SSE 9.7 km/h 19.3 km/h 67 % 0 mm
19:28 32.2 °C 25.3 °C 1013.4 hPa ESE 14.5 km/h 20.9 km/h 67 % 0 mm
19:33 32 °C 25.3 °C 1013.4 hPa SE 8 km/h 20.9 km/h 68 % 0 mm
19:38 31.9 °C 25.5 °C 1013.4 hPa SSW 9.7 km/h 20.9 km/h 69 % 0 mm
19:39 31.9 °C 25.5 °C 1013.4 hPa SE 11.3 km/h 20.9 km/h 69 % 0 mm
19:44 31.8 °C 25.4 °C 1013.4 hPa ESE 11.3 km/h 19.3 km/h 69 % 0 mm
19:49 31.7 °C 25.6 °C 1013.8 hPa South 6.4 km/h 19.3 km/h 70 % 0 mm
19:54 31.7 °C 25.3 °C 1013.4 hPa South 12.9 km/h 19.3 km/h 69 % 0 mm
19:59 31.7 °C 25.3 °C 1013.4 hPa SSE 14.5 km/h 20.9 km/h 69 % 0 mm
20:04 31.7 °C 25.1 °C 1013.4 hPa SSE 12.9 km/h 20.9 km/h 68 % 0 mm
20:09 31.7 °C 25.3 °C 1013.4 hPa SSE 8 km/h 20.9 km/h 69 % 0 mm
20:14 31.6 °C 25.7 °C 1013.8 hPa SE 11.3 km/h 20.9 km/h 71 % 0 mm
20:19 31.4 °C 25.5 °C 1013.8 hPa SE 6.4 km/h 22.5 km/h 71 % 0 mm
20:24 31.3 °C 25.6 °C 1013.8 hPa SSE 6.4 km/h 22.5 km/h 72 % 0 mm
20:29 31.2 °C 25.5 °C 1013.8 hPa SE 9.7 km/h 22.5 km/h 72 % 0 mm
20:34 31.1 °C 25.7 °C 1013.8 hPa SE 9.7 km/h 22.5 km/h 73 % 0 mm
20:39 31 °C 25.6 °C 1013.8 hPa SSE 12.9 km/h 22.5 km/h 73 % 0 mm
20:44 30.9 °C 25.5 °C 1013.8 hPa SE 8 km/h 22.5 km/h 73 % 0 mm
20:49 30.8 °C 25.4 °C 1013.8 hPa SSE 11.3 km/h 19.3 km/h 73 % 0 mm
20:54 30.8 °C 25.4 °C 1013.8 hPa SSE 8 km/h 19.3 km/h 73 % 0 mm
20:59 30.6 °C 25.4 °C 1013.8 hPa SE 11.3 km/h 19.3 km/h 74 % 0 mm
21:04 30.6 °C 25.4 °C 1013.8 hPa SSE 11.3 km/h 17.7 km/h 74 % 0 mm
21:09 30.4 °C 25.2 °C 1013.8 hPa SSW 9.7 km/h 19.3 km/h 74 % 0 mm
21:14 30.4 °C 25.2 °C 1013.8 hPa SSW 14.5 km/h 19.3 km/h 74 % 0 mm
21:19 30.3 °C 25.1 °C 1014.1 hPa ESE 8 km/h 20.9 km/h 74 % 0 mm
21:24 30.2 °C 25 °C 1014.1 hPa SE 12.9 km/h 20.9 km/h 74 % 0 mm
21:29 30.1 °C 25 °C 1014.1 hPa SE 11.3 km/h 20.9 km/h 74 % 0 mm
21:34 30.1 °C 25 °C 1014.1 hPa SE 8 km/h 20.9 km/h 74 % 0 mm
21:40 29.9 °C 25 °C 1014.1 hPa SSE 9.7 km/h 20.9 km/h 75 % 0 mm
21:45 29.9 °C 25 °C 1014.1 hPa ESE 14.5 km/h 20.9 km/h 75 % 0 mm
21:50 29.8 °C 25.1 °C 1014.4 hPa SE 6.4 km/h 20.9 km/h 76 % 0 mm
21:55 29.8 °C 25.1 °C 1014.4 hPa SSW 9.7 km/h 20.9 km/h 76 % 0 mm
22:00 29.7 °C 25.2 °C 1014.1 hPa SSW 12.9 km/h 20.9 km/h 77 % 0 mm
22:05 29.6 °C 25.1 °C 1014.4 hPa SSW 8 km/h 20.9 km/h 77 % 0 mm
22:10 29.5 °C 25.3 °C 1014.4 hPa SSW 8 km/h 20.9 km/h 78 % 0 mm
22:15 29.4 °C 25.2 °C 1014.4 hPa South 8 km/h 20.9 km/h 78 % 0 mm
22:20 29.3 °C 25.3 °C 1014.4 hPa SSE 9.7 km/h 16.1 km/h 79 % 0 mm
22:25 29.3 °C 25.3 °C 1014.4 hPa ESE 6.4 km/h 17.7 km/h 79 % 0 mm
22:30 29.2 °C 25.2 °C 1014.4 hPa SSE 6.4 km/h 17.7 km/h 79 % 0 mm
22:35 29.2 °C 25.4 °C 1014.8 hPa SE 4.8 km/h 17.7 km/h 80 % 0 mm
22:36 29.2 °C 25.4 °C 1014.8 hPa SSW 9.7 km/h 17.7 km/h 80 % 0 mm
22:41 29.1 °C 25.3 °C 1014.8 hPa South 9.7 km/h 16.1 km/h 80 % 0 mm
22:46 29 °C 25.2 °C 1014.8 hPa SSE 12.9 km/h 17.7 km/h 80 % 0 mm
22:48 29 °C 25.2 °C 1014.8 hPa SSE 4.8 km/h 17.7 km/h 80 % 0 mm
22:53 28.9 °C 25.3 °C 1015.1 hPa SSW 6.4 km/h 17.7 km/h 81 % 0 mm
22:58 28.8 °C 25.2 °C 1015.1 hPa SSW 4.8 km/h 17.7 km/h 81 % 0 mm
23:03 28.8 °C 25.4 °C 1015.1 hPa SSW 11.3 km/h 16.1 km/h 82 % 0 mm
23:08 28.7 °C 25.5 °C 1015.1 hPa SSE 8 km/h 11.3 km/h 83 % 0 mm
23:13 28.7 °C 25.5 °C 1015.1 hPa SE 4.8 km/h 14.5 km/h 83 % 0 mm
23:18 28.6 °C 25.6 °C 1015.1 hPa SSE 6.4 km/h 14.5 km/h 84 % 0 mm
23:23 28.6 °C 25.6 °C 1015.1 hPa SE 9.7 km/h 14.5 km/h 84 % 0 mm
23:28 28.5 °C 25.5 °C 1015.1 hPa SSE 3.2 km/h 14.5 km/h 84 % 0 mm
23:33 28.4 °C 25.4 °C 1014.8 hPa SSE 11.3 km/h 14.5 km/h 84 % 0 mm
23:34 28.4 °C 25.6 °C 1014.8 hPa East 11.3 km/h 14.5 km/h 85 % 0 mm
23:39 28.4 °C 25.6 °C 1014.8 hPa SSE 6.4 km/h 14.5 km/h 85 % 0 mm
23:44 28.4 °C 25.6 °C 1014.8 hPa SSE 9.7 km/h 16.1 km/h 85 % 0 mm
23:49 28.3 °C 25.7 °C 1014.8 hPa SE 3.2 km/h 16.1 km/h 86 % 0 mm
23:54 28.3 °C 25.7 °C 1014.8 hPa SE 6.4 km/h 19.3 km/h 86 % 0 mm
23:59 28.2 °C 25.6 °C 1014.4 hPa South 4.8 km/h 19.3 km/h 86 % 0 mm
Spring, Texas: Villages of Bridgestone
Compliments of Weather Underground - 2.75 mb

Script developed by  Jim McMurry - jmcmurry@mwt.net Adapted for the template by  Wim van der Kuil - Leuven-Template.eu

You find our weather info also at:

UK Metoffice

WeatherCloud

Weather Underground

Mid-South Weather Network

AWEKAS

Citizen Weather Observer Program (CWOP)

HAMweather, WeatherForYou, PWS Weather

Equipment we use:

Weather-station
Davis Vantage Vue

Weather-program
Meteohub

Weather-server
Debian 7.9 x86 (Guest)

Provider
DreamHost

Davis Vantage Vue

Meteohub

Debian 7.9 x86 (Guest)

DreamHost